sat.trackr.live / text

‹ back to catalog

STARLINK-32907

NORAD 63095 · 2025-037U

PAYLOAD ACTIVE UNKNOWN

§ Identity

Operator
Country
US
Launch date
2025-02-23
Launch site
AFWTR
Launch vehicle
Mass (kg)
RCS (m²)

Purposes: comms

External: N2YO · Heavens-Above · Gunter

§ Orbital elements

Epoch: 2026-05-25T03:36:56.437344Z

Period
96.11 min
Inclination
70.0012°
Eccentricity
0.0004016
Mean motion
14.98346435 rev/d
Perigee alt
569.2 km
Apogee alt
574.8 km
Semi-major
6,950.1 km
B*
5.8265e-4
RAAN
161.7271°
Arg perigee
263.8189°
Mean anomaly
96.2512°
Rev number
7,000

§ Raw data

STARLINK-329071 63095U 25037U   26145.15065321  .00006869  00000+0  58265-3 0  99982 63095  70.0012 161.7271 0004016 263.8189  96.2512 14.98346435 70007

JSON: /api/v1/satellites/63095 · /tle

For live sub-satellite position, see the globe view (requires WebGL).

§ Visibility from observer

Set your observer location to see the next 7 days of passes ≥ 10°. The values pass through the URL so the page stays shareable.

No JS? Fill the form by hand. The geolocation button needs JavaScript.